Regional Weather Roundup
Issued by NWS Wakefield, VA

Home | Current Version | Previous Version | Text Only | Print | Product List | Glossary Off
Versions: 1 2 3 4 5 6 7 8 9 10 11 12 13 14 15 16 17 18 19 20 21 22 23 24 25 26 27 28 29 30 31 32 33 34 35 36 37 38 39 40 41 42 43 44 45 46 47 48 49 50

000
ASUS41 KAKQ 262210
RWRAKQ

REGIONAL WEATHER ROUNDUP
NATIONAL WEATHER SERVICE WAKEFIELD VA
500 PM EST THU FEB 26 2015

Note: "fair" indicates few or no clouds below 12,000 feet with no
significant weather and/or obstructions to visibility. * = Denotes
station may not report precipitation (e.g., rain,snow,etc.),
thunder or fog.

VAZ042-051-052>054-056-262300-
NORTHERN VIRGINIA

CITY           SKY/WX    TMP DP  RH WIND       PRES   REMARKS
WASH NATIONAL  CLOUDY    38  23  55 N6        30.00R
DULLES         CLOUDY    34  20  56 CALM      29.99R
FORT BELVOIR   CLOUDY    36  23  59 NW6       30.00R
QUANTICO       CLOUDY    36  24  62 N5        30.02R
FREDERICKSBRG* CLOUDY    37  27  67 N3        30.00R
STAFFORD*      CLOUDY    35  24  64 N5        30.04R
WARRENTON      CLOUDY    36  29  78 N3        29.99R
CULPEPER*      CLOUDY    36  27  69 CALM      29.99R
MANASSAS*      CLOUDY    36  27  69 N5        29.99R
LEESBURG*      CLOUDY    34  27  75 CALM      29.99R
WINCHESTER     CLOUDY    34  19  55 CALM      29.96R
FRONT ROYAL*   CLOUDY    32  25  74 CALM      29.95R
LURAY*         CLOUDY    36  28  75 CALM      29.95R
$$

VAZ048-049-060>072-079>083-262300-
CENTRAL AND SOUTH CENTRAL VIRGINIA

CITY           SKY/WX    TMP DP  RH WIND       PRES   REMARKS
RICHMOND       CLOUDY    37  26  64 N7        29.99R
CHESTERFIELD*  CLOUDY    37  19  48 N6        30.00R
PETERSBURG*    CLOUDY    37  29  74 N6        29.99R
HANOVER        CLOUDY    36  26  67 CALM      30.01R
TAPPAHANNOCK*  CLOUDY    36  26  66 CALM      30.00R
QUINTON*       CLOUDY    35  28  76 N3        29.99R
CHARLOTTSVILLE CLOUDY    36  24  62 E7        29.97R
GORDONSVILLE*  CLOUDY    34  25  68 NE3       29.98R
ORANGE*        CLOUDY    36  28  75 N3        30.00R
LOUISA*        CLOUDY    36  27  69 CALM      29.98R
BUMPASS*       CLOUDY    35  25  67 N3        29.99R
FARMVILLE*     PTSUNNY   45  27  49 N3        29.98R
CREWE*         CLOUDY    35  27  73 NW6       29.99R
FORT PICKETT*  CLOUDY    35  28  75 N5        29.98R
CHASE CITY*    CLOUDY    37  31  81 N3        29.99R
CLARKSVILLE*   CLOUDY    34  30  86 N3        29.99R
SOUTH HILL*    CLOUDY    34  28  79 N3        30.04R
LAWRENCEVILLE* CLOUDY    35  30  82 N3        29.98R
EMPORIA*       CLOUDY    34  30  86 N5        30.01R
$$

VAZ088>098-262300-
SOUTHEAST VIRGINIA

CITY           SKY/WX    TMP DP  RH WIND       PRES   REMARKS
NORFOLK        LGT SNOW  31  28  89 N14       29.98R FOG     WCI  21
VIRGINIA BEACH CLOUDY    33  30  88 N13       29.97R FOG     WCI  24
NORFOLK NAVAL  LGT SNOW  34  29  82 N14       30.00R FOG     WCI  25
WEST POINT*    CLOUDY    36  28  73 N3        30.02R
SALUDA*        CLOUDY    32  28  84 N5        30.00R
NEWPORT NEWS   LGT SNOW  35  29  78 NE7       30.00R
LANGLEY AFB    MIX PCPN  32  29  89 NE9       29.99R FOG
FORT EUSTIS    PTSUNNY   32  32 100 NE5       29.98R
WILLIAMSBURG*  PTSUNNY   36  34  93 NE3       30.00R
HR EXEC AP*    CLOUDY    32  28  86 NE7       30.01R
FRANKLIN*      FLURRIES  33  31  95 N5        30.00R
WAKEFIELD      CLOUDY    35  30  82 N6        29.99R
$$

VAZ020-022-025-037-045-262300-
WEST CENTRAL AND SOUTHWEST VIRGINIA

CITY           SKY/WX    TMP DP  RH WIND       PRES   REMARKS
STAUNTON*      CLOUDY    35  22  60 CALM      29.95R
WAYNESBORO*    CLOUDY    33  22  64 CALM      29.92R
HOT SPRINGS VA CLOUDY    28  23  83 W7        29.80R
LYNCHBURG      CLOUDY    34  27  75 SE5       29.97R
DANVILLE       MOSUNNY   37  28  70 E3        29.99R
SOUTH BOSTON*  FAIR      34  28  77 NW3       30.01R
MARTINSVILLE   CLOUDY    38  30  72 CALM      29.99R
ROANOKE        CLOUDY    38  26  62 CALM      29.95R
BLACKSBURG     CLOUDY    33  26  75 W5        29.93R
DUBLIN*        CLOUDY    35  29  79 W7        29.93R
MARION*        CLOUDY    32  26  78 W7        29.94R
HILLSVILLE*    CLOUDY    32  28  86 W6        29.90R
RICHLANDS*     CLOUDY    29  24  81 W3        29.92R
WISE*          CLOUDY    32  23  69 W7        29.95R
ABINGDON*      CLOUDY    35  28  75 NW3       29.95R
$$

MDZ021>025-VAZ099-100-262300-
SOUTHERN MARYLAND AND THE DELMARVA PENINSULA

CITY           SKY/WX    TMP DP  RH WIND       PRES   REMARKS
PATUXENT RIVER MOCLDY    32  22  66 N10       29.99R WCI  24
BAY BRIDGE APT   N/A     32  21  64 N6        30.00R
LEONARDTOWN    CLOUDY    32  23  69 CALM      30.01R
DOVER          MOCLDY    31  19  60 N10       29.99R WCI  22
GEORGETOWN     CLOUDY    35  17  47 N7        29.99R
EASTON         CLOUDY    34  23  64 N6        30.03R
CAMBRIDGE      CLOUDY    34  23  64 NW8       29.99R
SALISBURY      CLOUDY    34  23  64 N6        29.99R
OCEAN CITY     CLOUDY    30  22  72 N10       29.99R WCI  21
WALLOPS ISLAND CLOUDY    30  24  78 N10       29.99R WCI  21
ACCOMACK*      CLOUDY    32  27  80 N10G16    29.97R WCI  24
$$

NCZ012>017-030>032-262300-
NORTH CENTRAL AND EASTERN NORTH CAROLINA

CITY           SKY/WX    TMP DP  RH WIND       PRES   REMARKS
ROANOKE RAPIDS CLOUDY    34  32  93 N5        29.99R
RALEIGH        CLOUDY    35  28  75 CALM      29.99R
ELIZABETH CITY NOT AVBL
AHOSKIE*       MIX PCPN  33  32  95 N7        29.99R
EDENTON*       CLOUDY    33  32  93 N8        29.97R
CURRITUCK*     CLOUDY    33  31  94 N14       29.95R FOG     WCI  23
KILL DEVIL HLS CLOUDY    32  32 100 N12G25    29.90R FOG     WCI  23
MANTEO         CLOUDY    32  32 100 N15G28    29.93R FOG     WCI  22
CAPE HATTERAS  CLOUDY    35  34  96 N8G22     29.89R
TARBORO*       CLOUDY    35  32  87 N6        30.00R
GOLDSBORO      CLOUDY    36  36  98 N9        29.97R
WASHINGTON     CLOUDY    35  32  91 N9        29.98R
GREENVILLE     CLOUDY    34  32  93 N5        30.00R
NEW BERN       CLOUDY    37  32  82 N8        29.97R
WILMINGTON     CLOUDY    39  33  79 N12       29.97R
$$

VAZ048-262300-
ELSEWHERE

CITY           SKY/WX    TMP DP  RH WIND       PRES   REMARKS
HARRISBURG PA  FLURRIES  28  19  69 N7        29.98S
BALTIMORE      CLOUDY    34  19  54 N6        29.99R
ANNAPOLIS      CLOUDY    32  21  64 NE6       30.00R
ANDREWS AFB    CLOUDY    35  23  61 N7        29.98R
PHILADELPHIA   CLOUDY    31  17  56 N10       30.01R WCI  22
HENDERSON NC   CLOUDY    34  28  76 CALM      29.98R
GREENSBORO     PTSUNNY   36  28  75 CALM      29.97R
ROCKY MOUNT    CLOUDY    35  32  88 NW9       29.99R
$$

VAZ100-262300-
MARINE

STATION/POSITION TIME  TEMP    WIND        PRES    WAVE   SWELL
                       AIR SEA DIR/SP/G            HT/PER HT/PER
                 (UTC) (F)     (DEG/KT/KT) (MB)    (FT/S) (FT/S)
BRANDYWINE LGT   2200   31 29   20/ 15/ 16 1015.2R
CAPE MAY NJ      2200   30 32   CALM  /  4 1015.0R
LEWES DE         2200   30 30   60/  5/  6 1015.4R
15NM E FENWICK I 2200   30 35              1014.4R  10/ 8
OCEAN-CITY-INLET 2200   30 32   30/  9/ 14 1014.9R
WACHAPREAGUE VA  2200   30 31   10/  8/ 11 1014.8F
THOMAS POINT MD  2200   31 31   40/  9/ 11 1016.9R
COVE POINT MD    2200   30      40/ 14/ 15 1015.3R
SOLOMONS ISLAND  2200      33                N/A
BISHOPS HEAD MD  2200   32 32  340/  9/ 13 1015.1R
CAMBRIDGE MD     2200   31 32  340/  8/  8 1015.5R
LEWISETTA VA     2200   29 32   CALM  /  4 1015.3S
RAPPAHANNOCK LGT 2200          360/ 14/ 16 1015.8R
STINGRAY PT      2200   30      20/ 12/ 14   N/A
YORK RVR RNG VA  2200   31      20/ 11/ 12 1014.8R
YORKTOWN VA      2200   32 33   30/  5/  6 1015.2R
DOMINION TERM VA 2200   32      20/  9/ 12 1015.3R
KIPTOPEKE VA     2200      36  360/  9/ 12   N/A
CHES BAY BRIDGE  2200   30 32  350/ 18/ 20 1014.6R
CAPE HENRY VA    2200   30     340/ 17/ 19 1013.4R
CHESAPEAKE LGHT  2100   32      10/ 27/ 31 1013.4R
WILLOUBY STN VA  2200   31     360/ 12/ 16 1015.8R
S CRANEY ISL VA  2200           10/  6/  8 1015.2R
CAPE HENRY BUOY  2200      36                N/A     8/ 9   2/11
1ST LANDING BUOY 2200   31                 1014.2R
OFFSHORE WE BUOY 2200      38                N/A    11/ 9   8/ 9
64NM E OF VA BCH 2200   44 57  360/ 27/ 33 1010.0R  16/10  13/10
DUCK PIER NC     2200   32 35  350/ 29/ 32 1011.3R
44100 DUCK FRF   2100      38                N/A    11/ 9   3/11
44056 DUCK FRF   2200      35                N/A    11/10   3/11
OREGON INLET NC  2200   33 37  330/ 14/ 26 1012.1R
HATTERAS NC      2200   35 41  340/ 23/ 27 1011.8R
CAPE LOOKOUT NC  2200   37     350/ 16/ 19 1013.4R
$$


USA.gov is the U.S. government's official web portal to all federal, state and local government web resources and services.